Flight Track Log - Related Links

Times and Time Zones

All times are in EDT time to prevent confusion due to time zone crossing. See the EJA831 flight status page for this flight to view local times or setup timezone preferences in your user account.

Time Position Orientation Groundspeed Altitude Reporting Facility
EDT Latitude Longitude Course Direction KTS MPH feet Rate Location/Type
09:39PM 32.1089 -110.9308 90° East 141 162 3,500  Level Albuquerque Center
09:41PM 32.1092 -110.8778 90° East 182 209 8,400 3,039 Climbing Albuquerque Center
09:42PM 32.1853 -110.9028 344° North 268 308 11,200 2,512 Climbing Albuquerque Center
09:43PM 32.2689 -110.9353 342° North 303 349 13,800 1,366 Climbing Albuquerque Center
09:44PM 32.3567 -110.9681 342° North 326 375 14,000 98 Climbing Albuquerque Center
09:45PM 32.4350 -111.0228 329° Northwest 325 374 14,000  Level Albuquerque Center
09:46PM 32.5167 -111.0772 331° Northwest 334 384 14,000 -49 Level Albuquerque Center
09:47PM 32.6147 -111.1425 331° Northwest 334 384 13,900  Descending Albuquerque Center
09:48PM 32.6956 -111.1964 331° Northwest 334 384 14,000 49 Climbing Albuquerque Center
09:49PM 32.7764 -111.2503 331° Northwest 334 384 14,000 -195 Level Albuquerque Center
09:50PM 32.8558 -111.3036 331° Northwest 333 383 13,600 -1,024 Descending Albuquerque Center
09:51PM 32.9333 -111.3531 332° Northwest 321 369 11,900 -1,574 Descending Albuquerque Center
09:52PM 33.0025 -111.4022 329° Northwest 289 333 10,400 -1,463 Descending Albuquerque Center
09:53PM 33.0550 -111.4717 312° West 282 325 8,900 -1,268 Descending Albuquerque Center
09:54PM 33.0881 -111.5550 295° West 284 327 7,800 -1,328 Descending Albuquerque Center
09:55PM 33.1122 -111.6411 289° West 277 319 6,200 -878 Descending Albuquerque Center
09:56PM 33.1411 -111.7417 289° West 268 308 6,000 -488 Descending Albuquerque Center
09:57PM 33.1675 -111.8181 292° West 250 288 5,200 -492 Descending Albuquerque Center
09:58PM 33.2069 -111.8711 312° West 219 252 5,000 -98 Descending Albuquerque Center
09:59PM 33.2461 -111.9267 310° West 216 249 5,000  Level Albuquerque Center
10:00PM 33.2911 -111.9719 320° Northwest 212 244 5,000  Level Albuquerque Center
10:01PM 33.3436 -111.9903 344° North 206 237 5,000  Level Albuquerque Center
10:03PM 33.4167 -111.9833 North 205 236 5,000 -234 Level Phoenix TRACON
10:04PM 33.4667 -111.9833 360° North 203 234 4,500 -850 Descending Phoenix TRACON
10:05PM 33.5333 -111.9833 360° North 189 217 3,300 -789 Descending Phoenix TRACON
10:05PM 33.5667 -111.9667 23° Northeast 160 184 3,000 -522 Descending Phoenix TRACON
10:07PM 33.6000 -111.9500 23° Northeast 107 123 2,300 -689 Descending Phoenix TRACON

Login

Don't have an account? Register now (free) for customized features, flight alerts, and more!